Tracking 21076 objects as of 8-Aug-2020
HD Live streaming from Space Station
objects crossing your sky now

ARIANE 1 DEB

Track ARIANE 1 DEB now!
10-day predictions


NORAD ID: 17212
Int'l Code: 1986-019BQ
Perigee: 567.7 km
Apogee: 591.5 km
Inclination: 98.6 °
Period: 96.1 minutes
Semi major axis: 6950 km
RCS: 0.0885 m2 (small)
Launch date: February 22, 1986
Source: France (FR)
Launch site: FRENCH GUIANA (FRGUI)

Note: This is SATELLITE DEBRIS
aabbcc
Your satellite tracking list
Your tracking list is empty




NASA's NSSDC Master Catalog

Two Line Element Set (TLE):
1 17212U 86019BQ  20220.54620038 +.00001837 +00000-0 +16032-3 0  9995
2 17212 098.5769 235.9295 0017099 154.4798 006.2664 14.98195510781630
Source of the keplerian elements: AFSPC